Regional Weather Roundup
Issued by NWS

Home | Current Version | Previous Version | Graphics & Text | Print | Product List | Glossary On
Versions: 1 2 3 4 5 6 7 8 9 10 11 12 13 14 15 16 17 18 19 20 21 22 23 24 25 26 27 28 29 30 31 32 33 34 35 36 37 38 39 40 41 42 43 44 45 46 47 48 49 50
000
ASUS43 KMPX 280310
RWRMN
WEATHER ROUNDUP FOR MINNESOTA
NATIONAL WEATHER SERVICE TWIN CITIES/CHANHASSEN MN
1000 PM CDT FRI MAY 27 2016


NOTE: "FAIR" INDICATES FEW OR NO CLOUDS BELOW 12,000 FEET WITH NO
SIGNIFICANT WEATHER AND/OR OBSTRUCTIONS TO VISIBILITY. N/A MEANS
CURRENT SKY AND/OR WEATHER CONDITIONS ARE NOT AVAILABLE.

MNZ060>063-068>070-280400-
   Twin Cities Metro

CITY           SKY/WX    TMP DP  RH WIND       PRES   REMARKS
TWIN CITIES    CLOUDY    64  60  87 N5        29.75R
ST PAUL        CLOUDY    64  62  93 NW8       29.75R
CRYSTAL        CLOUDY    63  59  87 NW3       29.74R
BLAINE         CLOUDY    64  64 100 NE3       29.75R
EDEN PRAIRIE   CLOUDY    62  58  86 CALM      29.74S
SOUTH ST PAUL  CLOUDY    65  62  91 CALM      29.75R
LAKE ELMO      CLOUDY    64  63  94 CALM      29.76R
$$
MNZ001>005-007-008-013>017-022>024-027-028-280400-
   Northwest Minnesota

CITY           SKY/WX    TMP DP  RH WIND       PRES   REMARKS
BEMIDJI        CLOUDY    57  53  86 CALM      29.83S
HALLOCK        PTCLDY    64  59  82 SE7       29.80R
ROSEAU         CLOUDY    63  57  82 SE6       29.84R
WARROAD        CLOUDY    61  57  88 CALM      29.85S
THIEF RVR FALL CLOUDY    63  54  72 SE6       29.83S
CROOKSTON      CLOUDY    63  61  94 SE9       29.81R
FOSSTON        CLOUDY    61  55  82 CALM      29.82F
DETROIT LAKES  PTCLDY    61  54  77 CALM      29.81S
MOORHEAD       CLOUDY    63  61  94 NE6       29.79R
PARK RAPIDS    CLOUDY    61  55  81 NE3       29.80S
MAHNOMEN       CLOUDY    61  56  82 N3        29.81S
$$
MNZ006-009>011-018-025>026-280400-
   North Central Minnesota

CITY           SKY/WX    TMP DP  RH WIND       PRES   REMARKS
BAUDETTE       PTCLDY    59  54  83 E7        29.86R
FLAG ISLAND    MOCLDY    63  57  82 CALM      29.85R
INTL FALLS     MOCLDY    61  53  75 NE5       29.86R
WASKISH        PTCLDY    57  55  94 NE3       29.85S
BIG FORK       CLOUDY    57  55  94 N3        29.84S
LONGVILLE      CLOUDY    55  54  94 CALM      29.82S FOG
GRAND RAPIDS   LGT RAIN  58  55  90 VRB3      29.83S
CRANE LAKE     CLOUDY    57  55  94 CALM      29.88R
ORR            CLOUDY    55  54  94 CALM      29.84R
COOK           CLOUDY    57  54  88 CALM      29.86R
WALKER         FAIR      58  55  89 NE3       29.82R
$$
MNZ012-019>021-037-280400-
   Northeast Minnesota

CITY           SKY/WX    TMP DP  RH WIND       PRES   REMARKS
DULUTH         CLOUDY    53  51  93 E16       29.82S
ELY            CLOUDY    55  54  94 CALM      29.85R
HIBBING        CLOUDY    58  55  90 NE3       29.83R
EVELETH        CLOUDY    57  54  88 CALM      29.84S
DULUTH HARBOR  LGT RAIN  46  45  93 E15       29.84R
TWO HARBORS    LGT RAIN  55  50  82 NE10G17   29.81S
SILVER BAY     LGT RAIN  52  50  93 NE7       29.82S
GRAND MARAIS     N/A     45  43  93 NE10      29.88R
G MARAIS ARPRT LGT RAIN  55  48  76 NE8       29.88S
$$
MNZ029>031-032-039>041-046>048-054>057-064-280400-
   West Central Minnesota

CITY           SKY/WX    TMP DP  RH WIND       PRES   REMARKS
FERGUS FALLS   CLOUDY    63  55  77 E7        29.75R
WHEATON        CLOUDY    63  59  88 CALM      29.78S
MORRIS         CLOUDY    63  59  88 E13       29.77R
ALEXANDRIA     PTCLDY    59  56  89 E7        29.80R
ELBOW LAKE     FAIR      60  58  93 SE9       29.78R
WADENA         CLOUDY    57  54  88 E5        29.79R
GLENWOOD       CLOUDY    61  57  88 E10       29.79R
APPLETON       CLOUDY    66  59  77 NE9       29.76R
BENSON         CLOUDY    63  57  82 E5        29.78
ORTONVILLE     MOCLDY    64  61  88 NE6       29.76R
MADISON        PTCLDY    66  57  72 E13       29.75R
WILLMAR        CLOUDY    63  59  88 E8        29.79R
$$
MNZ033>034-036-042>043-049>051-058-059-280400-
   Central Minnesota

CITY           SKY/WX    TMP DP  RH WIND       PRES   REMARKS
ST CLOUD       CLOUDY    58  57  97 VRB6      29.77R
SAUK CENTRE    CLOUDY    60  56  89 NE8       29.79R
PAYNESVILLE    CLOUDY    61  59  94 NE6       29.79R
AITKIN         CLOUDY    61  54  77 N3        29.79S
PINE RIVER     CLOUDY    59  55  88 NE3       29.84S
BRAINERD       CLOUDY    59  57  93 E6        29.80S
STAPLES        MOCLDY    57  55  94 E5        29.79S
LONG PRAIRIE   MOCLDY    59  55  88 N8        29.80R
LITTLE FALLS   CLOUDY    59  54  82 CALM      29.78R
LITCHFIELD     CLOUDY    63  61  94 E3        29.77R
BUFFALO        CLOUDY    61  58  90 NE6       29.76S
MAPLE LAKE     CLOUDY    60  59  96 N3        29.76R
HUTCHINSON     CLOUDY    63  61  94 CALM      29.77R
$$
MNZ037-044-045-052-053-280400-
   East Central Minnesota

CITY           SKY/WX    TMP DP  RH WIND       PRES   REMARKS
PRINCETON      CLOUDY    59  57  94 NE3       29.76S
MORA           CLOUDY    54  52  94 NE3       29.79S
CAMBRIDGE      CLOUDY    61  52  72 N5        29.74S
RUSH CITY      CLOUDY    58  56  93 NE6       29.76S
MOOSE LAKE     CLOUDY    52  50  93 NE5       29.77F
HINCKLEY       CLOUDY    55  54  94 N6        29.78S
CLOQUET        CLOUDY    54  52  94 E6        29.81S
MCGREGOR       CLOUDY    55  54  94 E9        29.80S
$$
MNZ071>073-080-081-089-090-097-098-280400-
   Southwest Minnesota

CITY           SKY/WX    TMP DP  RH WIND       PRES   REMARKS
MONTEVIDEO     PTCLDY    64  59  82 SE9       29.77R
GRANITE FALLS  CLOUDY    66  62  86 E9        29.76S
CANBY          MOCLDY    67  61  81 W7        29.76S
MARSHALL       CLOUDY    68  58  70 E12       29.75R
REDWOOD FALLS  PTCLDY    63  60  90 E5        29.75R
OLIVIA         CLOUDY    61  57  88 E7        29.76R
PIPESTONE      CLOUDY    70  55  60 E5        29.76R
WINDOM         CLOUDY    66  59  77 CALM      29.76R
WORTHINGTON    CLOUDY    66  60  81 NE10      29.75R
JACKSON        CLOUDY    64  59  82 NE6       29.76R
TRACY          PTCLDY    65  58  79 E5        29.75S
SLAYTON        PTCLDY    66  56  70 E6        29.77R
$$
MNZ065>067-074>077-082>085-091>093-280400-
   South Central Minnesota

CITY           SKY/WX    TMP DP  RH WIND       PRES   REMARKS
MANKATO        MOCLDY    64  59  82 E6        29.75R
NEW ULM        CLOUDY    64  63  94 NE10      29.76R
ST JAMES       CLOUDY    61  57  88 N7        29.76R
FAIRMONT       PTCLDY    68  61  77 E6        29.75R
GLENCOE        CLOUDY    63  62  96 CALM      29.75S
FARIBAULT      CLOUDY    63  61  94 CALM      29.76R
OWATONNA       CLEAR     63  61  94 CALM      29.76R
WASECA         PTCLDY    63  59  88 NE5       29.76S
ALBERT LEA     CLEAR     64  63  94 CALM      29.76R
$$
MNZ078>079-086>088-094>096-280400-
   Southeast Minnesota

CITY           SKY/WX    TMP DP  RH WIND       PRES   REMARKS
ROCHESTER      CLEAR     63  62  97 N3        29.77R
RED WING       CLEAR     63  63 100 CALM      29.74R FOG
STANTON        CLEAR     62  60  92 CALM      29.74R FOG
DODGE CENTER   CLEAR     61  59  94 CALM      29.77R FOG
WINONA         CLOUDY    70  66  88 CALM      29.75R
AUSTIN         CLEAR     63  61  94 CALM      29.77R
PRESTON        MOCLDY    64  62  91 CALM      29.77R
$$
ABBREVIATIONS USED IN REMARKS
   TC - TEMPERATURES IN CELSIUS
  WCI - WIND CHILL INDEX
   HX - HEAT INDEX
  VSB - VISIBILITY
$$




USA.gov is the U.S. government's official web portal to all federal, state and local government web resources and services.